Time,TemperatureF,DewpointF,PressureIn,WindDirection,WindDirectionDegrees,WindSpeedMPH,WindSpeedGustMPH,Humidity,HourlyPrecipIn,Conditions,Clouds,dailyrainin,SoftwareType,DateUTC
2013-05-14 00:02:00,55.4,40.0,29.97,SSE,148,7.1,10.4,56,0.00,CLR,,0.00,WeatherDisplay:10.37,2013-05-14 05:02:00,
2013-05-14 00:07:00,55.3,39.9,29.96,SE,139,7.2,9.2,56,0.00,CLR,,0.00,WeatherDisplay:10.37,2013-05-14 05:07:00,
2013-05-14 00:12:00,55.1,40.1,29.96,SE,141,6.2,8.1,57,0.00,CLR,,0.00,WeatherDisplay:10.37,2013-05-14 05:12:00,
2013-05-14 00:17:00,54.8,40.3,29.95,SSE,148,6.2,9.2,58,0.00,CLR,,0.00,WeatherDisplay:10.37,2013-05-14 05:17:00,
2013-05-14 00:22:00,54.8,40.3,29.95,SE,141,6.0,7.0,58,0.00,CLR,,0.00,WeatherDisplay:10.37,2013-05-14 05:22:00,
2013-05-14 00:27:00,54.6,40.1,29.95,SSE,162,5.5,7.0,58,0.00,CLR,,0.00,WeatherDisplay:10.37,2013-05-14 05:27:00,
2013-05-14 00:32:00,54.4,40.4,29.94,SSE,156,4.8,8.1,59,0.00,CLR,,0.00,WeatherDisplay:10.37,2013-05-14 05:32:00,
2013-05-14 00:37:00,54.4,40.8,29.95,SSE,158,6.0,8.1,60,0.00,CLR,,0.00,WeatherDisplay:10.37,2013-05-14 05:37:00,
2013-05-14 00:42:00,54.5,40.9,29.94,SE,144,6.1,7.0,60,0.00,CLR,,0.00,WeatherDisplay:10.37,2013-05-14 05:42:00,
2013-05-14 00:47:00,54.5,40.9,29.94,SE,142,6.1,9.2,60,0.00,CLR,,0.00,WeatherDisplay:10.37,2013-05-14 05:47:00,
2013-05-14 00:52:00,54.5,40.9,29.94,SSE,160,6.5,9.2,60,0.00,CLR,,0.00,WeatherDisplay:10.37,2013-05-14 05:52:00,
2013-05-14 00:57:00,54.6,41.0,29.94,SSE,161,8.0,10.4,60,0.00,CLR,,0.00,WeatherDisplay:10.37,2013-05-14 05:57:00,
2013-05-14 01:02:00,54.6,41.0,29.93,SSE,167,8.7,11.5,60,0.00,CLR,,0.00,WeatherDisplay:10.37,2013-05-14 06:02:00,
2013-05-14 01:07:00,54.6,41.0,29.93,SSE,165,6.5,11.5,60,0.00,CLR,,0.00,WeatherDisplay:10.37,2013-05-14 06:07:00,
2013-05-14 01:12:00,54.8,41.2,29.93,South,171,8.2,12.7,60,0.00,CLR,,0.00,WeatherDisplay:10.37,2013-05-14 06:12:00,
2013-05-14 01:17:00,54.9,41.3,29.93,SSE,152,9.2,11.0,60,0.00,CLR,,0.00,WeatherDisplay:10.37,2013-05-14 06:17:00,
2013-05-14 01:22:00,55.1,41.0,29.92,SSE,150,7.2,10.4,59,0.00,CLR,,0.00,WeatherDisplay:10.37,2013-05-14 06:22:00,
2013-05-14 01:27:00,55.3,41.2,29.92,SSE,156,9.5,11.5,59,0.00,CLR,,0.00,WeatherDisplay:10.37,2013-05-14 06:27:00,
2013-05-14 01:32:00,55.4,41.3,29.92,SSE,152,8.1,10.4,59,0.00,CLR,,0.00,WeatherDisplay:10.37,2013-05-14 06:32:00,
2013-05-14 01:37:00,55.4,41.3,29.92,South,171,8.4,11.5,59,0.00,CLR,,0.00,WeatherDisplay:10.37,2013-05-14 06:37:00,
2013-05-14 01:42:00,55.3,41.2,29.91,South,174,8.5,11.5,59,0.00,CLR,,0.00,WeatherDisplay:10.37,2013-05-14 06:42:00,
2013-05-14 01:47:00,55.3,41.2,29.91,SSE,161,8.7,11.5,59,0.00,CLR,,0.00,WeatherDisplay:10.37,2013-05-14 06:47:00,
2013-05-14 01:52:00,55.2,41.1,29.91,SSE,157,7.3,11.5,59,0.00,CLR,,0.00,WeatherDisplay:10.37,2013-05-14 06:52:00,
2013-05-14 01:57:00,55.2,41.1,29.91,SSE,158,9.2,11.5,59,0.00,CLR,,0.00,WeatherDisplay:10.37,2013-05-14 06:57:00,
2013-05-14 02:02:00,55.3,41.2,29.91,SE,144,9.7,12.7,59,0.00,CLR,,0.00,WeatherDisplay:10.37,2013-05-14 07:02:00,
2013-05-14 02:07:00,55.3,41.2,29.90,SE,146,8.0,11.5,59,0.00,CLR,,0.00,WeatherDisplay:10.37,2013-05-14 07:07:00,
2013-05-14 02:12:00,55.4,41.3,29.90,SE,146,9.5,15.0,59,0.00,CLR,,0.00,WeatherDisplay:10.37,2013-05-14 07:12:00,
2013-05-14 02:17:00,55.5,41.4,29.90,SSE,152,9.1,11.5,59,0.00,CLR,,0.00,WeatherDisplay:10.37,2013-05-14 07:17:00,
2013-05-14 02:22:00,55.5,41.4,29.89,SSE,151,8.9,12.7,59,0.00,CLR,,0.00,WeatherDisplay:10.37,2013-05-14 07:22:00,
2013-05-14 02:27:00,55.5,41.4,29.89,SE,136,7.6,11.5,59,0.00,CLR,,0.00,WeatherDisplay:10.37,2013-05-14 07:27:00,
2013-05-14 02:32:00,55.3,41.6,29.89,South,178,9.0,11.5,60,0.00,CLR,,0.00,WeatherDisplay:10.37,2013-05-14 07:32:00,
2013-05-14 02:37:00,55.4,41.3,29.89,SSE,163,7.8,11.5,59,0.00,CLR,,0.00,WeatherDisplay:10.37,2013-05-14 07:37:00,
2013-05-14 02:42:00,55.3,41.6,29.89,SSE,158,9.1,12.7,60,0.00,CLR,,0.00,WeatherDisplay:10.37,2013-05-14 07:42:00,
2013-05-14 02:47:00,55.2,41.5,29.89,SSE,162,8.4,12.7,60,0.00,CLR,,0.00,WeatherDisplay:10.37,2013-05-14 07:47:00,
2013-05-14 02:52:00,55.1,41.5,29.88,SSE,155,9.2,13.8,60,0.00,CLR,,0.00,WeatherDisplay:10.37,2013-05-14 07:52:00,
2013-05-14 02:57:00,55.2,41.5,29.88,SE,146,7.4,12.7,60,0.00,CLR,,0.00,WeatherDisplay:10.37,2013-05-14 07:57:00,
2013-05-14 03:03:00,55.0,41.8,29.88,SSE,156,8.7,11.5,61,0.00,CLR,,0.00,WeatherDisplay:10.37,2013-05-14 08:03:00,
2013-05-14 03:08:00,54.9,41.7,29.88,SSE,161,9.3,11.5,61,0.00,CLR,,0.00,WeatherDisplay:10.37,2013-05-14 08:08:00,
2013-05-14 03:13:00,54.9,41.7,29.87,SSE,150,8.4,11.5,61,0.00,CLR,,0.00,WeatherDisplay:10.37,2013-05-14 08:13:00,
2013-05-14 03:18:00,54.8,42.0,29.87,SE,144,6.6,9.2,62,0.00,CLR,,0.00,WeatherDisplay:10.37,2013-05-14 08:18:00,
2013-05-14 03:23:00,54.6,42.3,29.87,SSE,167,7.3,11.5,63,0.00,CLR,,0.00,WeatherDisplay:10.37,2013-05-14 08:23:00,
2013-05-14 03:28:00,54.4,42.1,29.86,SE,143,6.5,10.4,63,0.00,CLR,,0.00,WeatherDisplay:10.37,2013-05-14 08:28:00,
2013-05-14 03:33:00,54.3,42.0,29.86,SSE,153,6.6,11.5,63,0.00,CLR,,0.00,WeatherDisplay:10.37,2013-05-14 08:33:00,
2013-05-14 03:38:00,54.2,42.3,29.86,SE,146,7.8,10.4,64,0.00,CLR,,0.00,WeatherDisplay:10.37,2013-05-14 08:38:00,
2013-05-14 03:43:00,54.2,42.3,29.86,South,169,7.5,9.2,64,0.00,CLR,,0.00,WeatherDisplay:10.37,2013-05-14 08:43:00,
2013-05-14 03:48:00,54.1,42.6,29.85,SE,142,8.4,10.4,65,0.00,CLR,,0.00,WeatherDisplay:10.37,2013-05-14 08:48:00,
2013-05-14 03:53:00,54.0,42.5,29.85,SSE,162,6.0,8.1,65,0.00,CLR,,0.00,WeatherDisplay:10.37,2013-05-14 08:53:00,
2013-05-14 03:58:00,54.0,42.5,29.85,SSE,155,9.0,10.4,65,0.00,CLR,,0.00,WeatherDisplay:10.37,2013-05-14 08:58:00,
2013-05-14 04:03:00,53.9,42.4,29.85,SSE,168,7.0,9.2,65,0.00,CLR,,0.00,WeatherDisplay:10.37,2013-05-14 09:03:00,
2013-05-14 04:08:00,53.7,42.6,29.85,SSE,158,7.5,10.0,66,0.00,CLR,,0.00,WeatherDisplay:10.37,2013-05-14 09:08:00,
2013-05-14 04:13:00,53.5,42.8,29.84,SSE,165,7.8,11.5,67,0.00,CLR,,0.00,WeatherDisplay:10.37,2013-05-14 09:13:00,
2013-05-14 04:18:00,53.4,42.7,29.84,SSE,148,7.5,12.0,67,0.00,CLR,,0.00,WeatherDisplay:10.37,2013-05-14 09:18:00,
2013-05-14 04:23:00,53.3,43.0,29.84,SSE,161,7.6,11.5,68,0.00,CLR,,0.00,WeatherDisplay:10.37,2013-05-14 09:23:00,
2013-05-14 04:28:00,53.2,42.9,29.84,SSE,168,5.9,9.2,68,0.00,CLR,,0.00,WeatherDisplay:10.37,2013-05-14 09:28:00,
2013-05-14 04:33:00,53.2,43.3,29.84,SSE,160,7.9,11.5,69,0.00,CLR,,0.00,WeatherDisplay:10.37,2013-05-14 09:33:00,
2013-05-14 04:38:00,53.1,43.2,29.83,SSE,164,7.2,10.4,69,0.00,CLR,,0.00,WeatherDisplay:10.37,2013-05-14 09:38:00,
2013-05-14 04:43:00,53.1,43.6,29.83,SSE,153,8.3,11.5,70,0.00,CLR,,0.00,WeatherDisplay:10.37,2013-05-14 09:43:00,
2013-05-14 04:48:00,53.0,43.5,29.83,SSE,154,7.4,11.5,70,0.00,CLR,,0.00,WeatherDisplay:10.37,2013-05-14 09:48:00,
2013-05-14 04:53:00,52.9,43.4,29.83,SE,140,6.1,9.2,70,0.00,CLR,,0.00,WeatherDisplay:10.37,2013-05-14 09:53:00,
2013-05-14 04:58:00,52.9,43.7,29.82,SSE,155,7.8,11.5,71,0.00,CLR,,0.00,WeatherDisplay:10.37,2013-05-14 09:58:00,
2013-05-14 05:03:00,52.8,43.7,29.82,SSE,157,6.6,9.2,71,0.00,CLR,,0.00,WeatherDisplay:10.37,2013-05-14 10:03:00,
2013-05-14 05:08:00,52.8,44.0,29.82,SSE,154,8.4,10.4,72,0.00,CLR,,0.00,WeatherDisplay:10.37,2013-05-14 10:08:00,
2013-05-14 05:13:00,53.0,44.2,29.82,SSE,155,8.6,11.5,72,0.00,CLR,,0.00,WeatherDisplay:10.37,2013-05-14 10:13:00,
2013-05-14 05:18:00,53.1,44.3,29.82,SE,144,6.7,10.4,72,0.00,CLR,,0.00,WeatherDisplay:10.37,2013-05-14 10:18:00,
2013-05-14 05:23:00,53.1,44.3,29.82,SSE,158,8.0,10.4,72,0.00,CLR,,0.00,WeatherDisplay:10.37,2013-05-14 10:23:00,
2013-05-14 05:28:00,53.1,44.3,29.81,SSE,163,9.0,11.5,72,0.00,CLR,,0.00,WeatherDisplay:10.37,2013-05-14 10:28:00,
2013-05-14 05:33:00,53.1,44.7,29.81,SSE,155,8.6,11.5,73,0.00,CLR,,0.00,WeatherDisplay:10.37,2013-05-14 10:33:00,
2013-05-14 05:38:00,53.0,44.6,29.81,SE,144,9.4,12.0,73,0.00,CLR,,0.00,WeatherDisplay:10.37,2013-05-14 10:38:00,
2013-05-14 05:43:00,53.1,44.7,29.81,SSE,159,8.8,11.5,73,0.00,CLR,,0.00,WeatherDisplay:10.37,2013-05-14 10:43:00,
2013-05-14 05:48:00,53.2,45.1,29.80,SSE,168,7.0,9.2,74,0.00,CLR,,0.00,WeatherDisplay:10.37,2013-05-14 10:48:00,
2013-05-14 05:53:00,53.2,45.1,29.80,SE,134,8.8,11.5,74,0.00,CLR,,0.00,WeatherDisplay:10.37,2013-05-14 10:53:00,
2013-05-14 05:58:00,53.2,45.1,29.80,SSE,163,6.9,11.5,74,0.00,CLR,,0.00,WeatherDisplay:10.37,2013-05-14 10:58:00,
2013-05-14 06:03:00,53.4,45.7,29.80,South,170,9.2,11.5,75,0.00,CLR,,0.00,WeatherDisplay:10.37,2013-05-14 11:03:00,
2013-05-14 06:08:00,53.7,45.6,29.80,SSE,149,6.5,9.2,74,0.00,CLR,,0.00,WeatherDisplay:10.37,2013-05-14 11:08:00,
2013-05-14 06:13:00,53.9,45.8,29.80,SSE,160,7.8,11.5,74,0.00,CLR,,0.00,WeatherDisplay:10.37,2013-05-14 11:13:00,
2013-05-14 06:18:00,54.0,45.9,29.80,SSE,153,7.8,10.4,74,0.00,CLR,,0.00,WeatherDisplay:10.37,2013-05-14 11:18:00,
2013-05-14 06:23:00,54.2,46.1,29.80,SE,142,8.4,11.5,74,0.00,CLR,,0.00,WeatherDisplay:10.37,2013-05-14 11:23:00,
2013-05-14 06:28:00,54.6,46.5,29.80,SE,143,7.9,11.5,74,0.00,CLR,,0.00,WeatherDisplay:10.37,2013-05-14 11:28:00,
2013-05-14 06:33:00,55.0,46.9,29.80,South,174,7.3,9.2,74,0.00,CLR,,0.00,WeatherDisplay:10.37,2013-05-14 11:33:00,
2013-05-14 06:38:00,55.4,46.9,29.80,South,178,4.7,6.9,73,0.00,CLR,,0.00,WeatherDisplay:10.37,2013-05-14 11:38:00,
2013-05-14 06:43:00,55.7,47.5,29.80,SE,142,4.1,6.9,74,0.00,CLR,,0.00,WeatherDisplay:10.37,2013-05-14 11:43:00,
2013-05-14 06:48:00,56.2,47.7,29.80,South,182,2.9,8.1,73,0.00,CLR,,0.00,WeatherDisplay:10.37,2013-05-14 11:48:00,
2013-05-14 06:53:00,56.8,47.9,29.80,SSW,196,6.6,10.4,72,0.00,CLR,,0.00,WeatherDisplay:10.37,2013-05-14 11:53:00,
2013-05-14 06:58:00,57.3,48.3,29.80,SE,142,8.3,13.8,72,0.00,CLR,,0.00,WeatherDisplay:10.37,2013-05-14 11:58:00,
2013-05-14 07:03:00,57.6,48.3,29.80,SSW,212,4.6,10.4,71,0.00,CLR,,0.00,WeatherDisplay:10.37,2013-05-14 12:03:00,
2013-05-14 07:08:00,57.9,48.6,29.80,South,183,7.7,11.5,71,0.00,CLR,,0.00,WeatherDisplay:10.37,2013-05-14 12:08:00,
2013-05-14 07:13:00,58.1,48.7,29.80,SSW,213,9.0,15.0,71,0.00,CLR,,0.00,WeatherDisplay:10.37,2013-05-14 12:13:00,
2013-05-14 07:18:00,58.4,48.7,29.79,South,187,8.0,12.0,70,0.00,CLR,,0.00,WeatherDisplay:10.37,2013-05-14 12:18:00,
2013-05-14 07:23:00,58.7,48.9,29.79,SSW,200,8.8,11.5,70,0.00,CLR,,0.00,WeatherDisplay:10.37,2013-05-14 12:23:00,
2013-05-14 07:28:00,59.0,49.2,29.79,SSE,165,6.5,10.4,70,0.00,CLR,,0.00,WeatherDisplay:10.37,2013-05-14 12:28:00,
2013-05-14 07:33:00,59.4,49.6,29.79,SSW,209,8.2,12.7,70,0.00,CLR,,0.00,WeatherDisplay:10.37,2013-05-14 12:33:00,
2013-05-14 07:38:00,59.8,49.6,29.79,South,186,8.8,12.7,69,0.00,CLR,,0.00,WeatherDisplay:10.37,2013-05-14 12:38:00,
2013-05-14 07:43:00,60.2,50.0,29.79,South,177,8.1,11.5,69,0.00,CLR,,0.00,WeatherDisplay:10.37,2013-05-14 12:43:00,
2013-05-14 07:48:00,60.9,50.7,29.79,SSW,207,7.2,11.5,69,0.00,CLR,,0.00,WeatherDisplay:10.37,2013-05-14 12:48:00,
2013-05-14 07:53:00,61.6,50.9,29.79,South,178,10.7,17.3,68,0.00,CLR,,0.00,WeatherDisplay:10.37,2013-05-14 12:53:00,
2013-05-14 07:58:00,62.0,50.9,29.79,SSW,202,9.7,17.3,67,0.00,CLR,,0.00,WeatherDisplay:10.37,2013-05-14 12:58:00,
2013-05-14 08:03:00,62.5,51.4,29.79,South,178,10.1,16.1,67,0.00,CLR,,0.00,WeatherDisplay:10.37,2013-05-14 13:03:00,
2013-05-14 08:08:00,62.7,51.2,29.78,SSW,201,8.9,19.6,66,0.00,CLR,,0.00,WeatherDisplay:10.37,2013-05-14 13:08:00,
2013-05-14 08:13:00,63.0,51.5,29.78,SSW,192,9.8,13.8,66,0.00,CLR,,0.00,WeatherDisplay:10.37,2013-05-14 13:13:00,
2013-05-14 08:18:00,63.2,51.6,29.78,SW,221,10.2,16.1,66,0.00,CLR,,0.00,WeatherDisplay:10.37,2013-05-14 13:18:00,
2013-05-14 08:23:00,63.6,51.6,29.78,South,185,11.8,18.4,65,0.00,CLR,,0.00,WeatherDisplay:10.37,2013-05-14 13:23:00,
2013-05-14 08:28:00,64.0,52.0,29.78,South,181,13.3,18.4,65,0.00,CLR,,0.00,WeatherDisplay:10.37,2013-05-14 13:28:00,
2013-05-14 08:33:00,64.3,52.3,29.78,SSW,192,10.5,16.0,65,0.00,CLR,,0.00,WeatherDisplay:10.37,2013-05-14 13:33:00,
2013-05-14 08:38:00,64.9,52.8,29.78,South,190,11.0,17.3,65,0.00,CLR,,0.00,WeatherDisplay:10.37,2013-05-14 13:38:00,
2013-05-14 08:43:00,65.7,53.2,29.78,SSW,203,8.2,12.7,64,0.00,CLR,,0.00,WeatherDisplay:10.37,2013-05-14 13:43:00,
2013-05-14 08:48:00,66.3,53.3,29.78,SW,228,10.9,17.3,63,0.00,CLR,,0.00,WeatherDisplay:10.37,2013-05-14 13:48:00,
2013-05-14 08:53:00,66.8,54.2,29.78,SSW,196,7.3,12.7,64,0.00,CLR,,0.00,WeatherDisplay:10.37,2013-05-14 13:53:00,
2013-05-14 08:58:00,67.4,54.4,29.78,SW,220,7.3,15.0,63,0.00,CLR,,0.00,WeatherDisplay:10.37,2013-05-14 13:58:00,
2013-05-14 09:03:00,67.7,54.2,29.78,SSW,200,11.5,19.6,62,0.00,CLR,,0.00,WeatherDisplay:10.37,2013-05-14 14:03:00,
2013-05-14 09:08:00,68.3,54.8,29.77,SW,220,6.8,11.5,62,0.00,CLR,,0.00,WeatherDisplay:10.37,2013-05-14 14:08:00,
2013-05-14 09:13:00,68.6,55.1,29.77,SW,221,7.9,15.0,62,0.00,CLR,,0.00,WeatherDisplay:10.37,2013-05-14 14:13:00,
2013-05-14 09:18:00,69.2,55.6,29.77,SW,216,10.1,16.1,62,0.00,CLR,,0.00,WeatherDisplay:10.37,2013-05-14 14:18:00,
2013-05-14 09:23:00,69.4,54.9,29.77,SSW,209,9.2,18.4,60,0.00,CLR,,0.00,WeatherDisplay:10.37,2013-05-14 14:23:00,
2013-05-14 09:28:00,69.7,55.6,29.77,SW,217,8.4,15.0,61,0.00,CLR,,0.00,WeatherDisplay:10.37,2013-05-14 14:28:00,
2013-05-14 09:33:00,70.3,56.2,29.76,SW,229,9.4,13.8,61,0.00,CLR,,0.00,WeatherDisplay:10.37,2013-05-14 14:33:00,
2013-05-14 09:38:00,71.1,56.5,29.76,SSW,211,5.8,9.2,60,0.00,CLR,,0.00,WeatherDisplay:10.37,2013-05-14 14:38:00,
2013-05-14 09:43:00,71.8,57.2,29.76,WSW,251,7.1,12.7,60,0.00,CLR,,0.00,WeatherDisplay:10.37,2013-05-14 14:43:00,
2013-05-14 09:48:00,72.1,57.4,29.76,SW,235,8.8,12.7,60,0.00,CLR,,0.00,WeatherDisplay:10.37,2013-05-14 14:48:00,
2013-05-14 09:53:00,72.4,57.3,29.76,WSW,241,7.0,11.5,59,0.00,CLR,,0.00,WeatherDisplay:10.37,2013-05-14 14:53:00,
2013-05-14 09:58:00,72.8,58.6,29.76,SW,231,7.0,11.5,61,0.00,CLR,,0.00,WeatherDisplay:10.37,2013-05-14 14:58:00,
2013-05-14 10:03:00,73.0,56.9,29.76,SW,236,7.2,11.5,57,0.00,CLR,,0.00,WeatherDisplay:10.37,2013-05-14 15:03:00,
2013-05-14 10:08:00,73.0,57.3,29.76,SSW,196,9.9,13.8,58,0.00,CLR,,0.00,WeatherDisplay:10.37,2013-05-14 15:08:00,
2013-05-14 10:13:00,73.3,57.6,29.76,SW,214,10.3,15.0,58,0.00,CLR,,0.00,WeatherDisplay:10.37,2013-05-14 15:13:00,
2013-05-14 10:18:00,73.5,56.8,29.75,SW,216,8.8,12.7,56,0.00,CLR,,0.00,WeatherDisplay:10.37,2013-05-14 15:18:00,
2013-05-14 10:23:00,73.5,56.8,29.75,SW,227,6.5,16.1,56,0.00,CLR,,0.00,WeatherDisplay:10.37,2013-05-14 15:23:00,
2013-05-14 10:28:00,73.9,57.2,29.75,South,191,6.0,12.7,56,0.00,CLR,,0.00,WeatherDisplay:10.37,2013-05-14 15:28:00,
2013-05-14 10:33:00,74.4,57.7,29.75,SW,229,7.9,11.5,56,0.00,CLR,,0.00,WeatherDisplay:10.37,2013-05-14 15:33:00,
2013-05-14 10:38:00,75.0,58.2,29.75,SW,221,6.0,9.2,56,0.00,CLR,,0.00,WeatherDisplay:10.37,2013-05-14 15:38:00,
2013-05-14 10:43:00,75.5,58.7,29.75,SW,230,5.9,13.0,56,0.00,CLR,,0.00,WeatherDisplay:10.37,2013-05-14 15:43:00,
2013-05-14 10:48:00,75.6,59.3,29.75,SW,221,4.7,10.4,57,0.00,CLR,,0.00,WeatherDisplay:10.37,2013-05-14 15:48:00,
2013-05-14 10:53:00,76.4,60.0,29.75,SW,227,5.5,7.0,57,0.00,CLR,,0.00,WeatherDisplay:10.37,2013-05-14 15:53:00,
2013-05-14 10:58:00,76.5,58.6,29.76,West,268,5.1,6.9,54,0.00,CLR,,0.00,WeatherDisplay:10.37,2013-05-14 15:58:00,
2013-05-14 11:03:00,76.5,59.6,29.76,WSW,244,3.4,10.0,56,0.00,CLR,,0.00,WeatherDisplay:10.37,2013-05-14 16:03:00,
2013-05-14 11:08:00,77.4,60.5,29.76,NW,309,5.6,12.7,56,0.00,CLR,,0.00,WeatherDisplay:10.37,2013-05-14 16:08:00,
2013-05-14 11:13:00,77.6,59.1,29.76,SSW,205,7.4,11.5,53,0.00,CLR,,0.00,WeatherDisplay:10.37,2013-05-14 16:13:00,
2013-05-14 11:18:00,77.5,58.5,29.76,SW,230,5.2,11.5,52,0.00,CLR,,0.00,WeatherDisplay:10.37,2013-05-14 16:18:00,
2013-05-14 11:23:00,78.2,59.1,29.75,SSW,199,8.9,12.0,52,0.00,CLR,,0.00,WeatherDisplay:10.37,2013-05-14 16:23:00,
2013-05-14 11:28:00,78.4,57.7,29.75,SSW,197,8.1,12.7,49,0.00,CLR,,0.00,WeatherDisplay:10.37,2013-05-14 16:28:00,
2013-05-14 11:33:00,79.1,60.5,29.75,SW,227,6.6,13.0,53,0.00,CLR,,0.00,WeatherDisplay:10.37,2013-05-14 16:33:00,
2013-05-14 11:38:00,79.3,58.5,29.75,SSW,205,5.8,11.0,49,0.00,CLR,,0.00,WeatherDisplay:10.37,2013-05-14 16:38:00,
2013-05-14 11:43:00,79.4,59.7,29.76,WSW,252,5.5,10.0,51,0.00,CLR,,0.00,WeatherDisplay:10.37,2013-05-14 16:43:00,
2013-05-14 11:48:00,79.3,58.5,29.76,SW,234,6.5,9.2,49,0.00,CLR,,0.00,WeatherDisplay:10.37,2013-05-14 16:48:00,
2013-05-14 11:53:00,79.9,58.5,29.76,SW,226,5.7,10.4,48,0.00,CLR,,0.00,WeatherDisplay:10.37,2013-05-14 16:53:00,
2013-05-14 11:58:00,80.6,59.7,29.76,SW,219,6.6,13.8,49,0.00,CLR,,0.00,WeatherDisplay:10.37,2013-05-14 16:58:00,
2013-05-14 12:03:00,80.7,59.2,29.76,WSW,248,6.9,6.9,48,0.00,CLR,,0.00,WeatherDisplay:10.37,2013-05-14 17:03:00,
2013-05-14 12:08:00,81.6,60.0,29.75,SSW,201,5.9,8.1,48,0.00,CLR,,0.00,WeatherDisplay:10.37,2013-05-14 17:08:00,
2013-05-14 12:13:00,81.8,59.6,29.75,SSW,207,5.0,6.0,47,0.00,CLR,,0.00,WeatherDisplay:10.37,2013-05-14 17:13:00,
2013-05-14 12:18:00,81.8,60.2,29.75,SW,217,5.3,11.5,48,0.00,CLR,,0.00,WeatherDisplay:10.37,2013-05-14 17:18:00,
2013-05-14 12:23:00,81.9,60.3,29.75,SSW,206,7.4,13.0,48,0.00,CLR,,0.00,WeatherDisplay:10.37,2013-05-14 17:23:00,
2013-05-14 12:28:00,82.5,59.0,29.75,WSW,238,6.5,11.5,45,0.00,CLR,,0.00,WeatherDisplay:10.37,2013-05-14 17:28:00,
2013-05-14 12:33:00,83.0,58.8,29.75,WSW,242,6.0,10.4,44,0.00,CLR,,0.00,WeatherDisplay:10.37,2013-05-14 17:33:00,
2013-05-14 12:38:00,83.3,59.7,29.75,SW,227,7.3,11.5,45,0.00,CLR,,0.00,WeatherDisplay:10.37,2013-05-14 17:38:00,
2013-05-14 12:43:00,83.2,58.4,29.75,SW,234,6.0,10.4,43,0.00,CLR,,0.00,WeatherDisplay:10.37,2013-05-14 17:43:00,
2013-05-14 12:48:00,83.8,60.2,29.75,WSW,251,4.2,5.8,45,0.00,CLR,,0.00,WeatherDisplay:10.37,2013-05-14 17:48:00,
2013-05-14 12:53:00,84.5,58.2,29.75,SSE,148,7.4,9.2,41,0.00,CLR,,0.00,WeatherDisplay:10.37,2013-05-14 17:53:00,
2013-05-14 12:58:00,84.9,59.2,29.75,WSW,239,8.3,12.7,42,0.00,CLR,,0.00,WeatherDisplay:10.37,2013-05-14 17:58:00,
2013-05-14 13:03:00,85.0,60.6,29.75,West,272,3.4,5.8,44,0.00,CLR,,0.00,WeatherDisplay:10.37,2013-05-14 18:03:00,
2013-05-14 13:08:00,85.4,61.0,29.75,WSW,249,6.9,11.5,44,0.00,CLR,,0.00,WeatherDisplay:10.37,2013-05-14 18:08:00,
2013-05-14 13:13:00,85.4,61.0,29.75,SSW,200,3.8,7.0,44,0.00,CLR,,0.00,WeatherDisplay:10.37,2013-05-14 18:13:00,
2013-05-14 13:18:00,85.8,57.3,29.74,SW,231,2.0,4.6,38,0.00,CLR,,0.00,WeatherDisplay:10.37,2013-05-14 18:18:00,
2013-05-14 13:23:00,86.1,61.0,29.74,West,273,4.8,5.8,43,0.00,CLR,,0.00,WeatherDisplay:10.37,2013-05-14 18:23:00,
2013-05-14 13:28:00,86.1,58.2,29.74,SSW,211,6.3,8.1,39,0.00,CLR,,0.00,WeatherDisplay:10.37,2013-05-14 18:28:00,
2013-05-14 13:33:00,86.9,59.7,29.74,SW,218,3.7,9.2,40,0.00,CLR,,0.00,WeatherDisplay:10.37,2013-05-14 18:33:00,
2013-05-14 13:38:00,86.8,59.6,29.74,WSW,257,1.9,9.0,40,0.00,CLR,,0.00,WeatherDisplay:10.37,2013-05-14 18:38:00,
2013-05-14 13:43:00,87.4,56.4,29.74,WSW,239,5.0,9.2,35,0.00,CLR,,0.00,WeatherDisplay:10.37,2013-05-14 18:43:00,
2013-05-14 13:48:00,87.4,56.4,29.74,SSW,212,4.2,6.9,35,0.00,CLR,,0.00,WeatherDisplay:10.37,2013-05-14 18:48:00,
2013-05-14 13:53:00,87.8,58.3,29.73,SW,236,2.4,8.1,37,0.00,CLR,,0.00,WeatherDisplay:10.37,2013-05-14 18:53:00,
2013-05-14 13:58:00,88.0,56.1,29.73,SSW,209,3.8,10.4,34,0.00,CLR,,0.00,WeatherDisplay:10.37,2013-05-14 18:58:00,
2013-05-14 14:03:00,88.8,56.0,29.73,South,174,5.3,6.9,33,0.00,CLR,,0.00,WeatherDisplay:10.37,2013-05-14 19:03:00,
2013-05-14 14:08:00,88.9,55.2,29.72,SW,232,2.3,8.1,32,0.00,CLR,,0.00,WeatherDisplay:10.37,2013-05-14 19:08:00,
2013-05-14 14:13:00,89.1,57.1,29.72,SSW,198,5.5,6.9,34,0.00,CLR,,0.00,WeatherDisplay:10.37,2013-05-14 19:13:00,
2013-05-14 14:18:00,89.7,57.6,29.72,SW,233,5.0,6.9,34,0.00,CLR,,0.00,WeatherDisplay:10.37,2013-05-14 19:18:00,
2013-05-14 14:23:00,89.9,56.9,29.72,South,188,6.1,9.2,33,0.00,CLR,,0.00,WeatherDisplay:10.37,2013-05-14 19:23:00,
2013-05-14 14:28:00,89.8,56.0,29.71,SW,234,2.3,5.8,32,0.00,CLR,,0.00,WeatherDisplay:10.37,2013-05-14 19:28:00,
2013-05-14 14:33:00,90.1,55.4,29.71,SSW,197,4.6,7.0,31,0.00,CLR,,0.00,WeatherDisplay:10.37,2013-05-14 19:33:00,
2013-05-14 14:38:00,90.3,55.6,29.71,SW,226,4.9,8.1,31,0.00,CLR,,0.00,WeatherDisplay:10.37,2013-05-14 19:38:00,
2013-05-14 14:43:00,90.3,51.8,29.71,SW,234,1.2,2.3,27,0.00,CLR,,0.00,WeatherDisplay:10.37,2013-05-14 19:43:00,
2013-05-14 14:48:00,90.6,53.0,29.71,WSW,244,3.6,9.2,28,0.00,CLR,,0.00,WeatherDisplay:10.37,2013-05-14 19:48:00,
2013-05-14 14:53:00,90.2,48.5,29.70,NW,323,1.0,3.5,24,0.00,CLR,,0.00,WeatherDisplay:10.37,2013-05-14 19:53:00,
2013-05-14 14:58:00,91.0,53.4,29.70,SSW,202,3.8,6.9,28,0.00,CLR,,0.00,WeatherDisplay:10.37,2013-05-14 19:58:00,
2013-05-14 15:03:00,91.7,51.9,29.70,South,184,8.0,13.0,26,0.00,CLR,,0.00,WeatherDisplay:10.37,2013-05-14 20:03:00,
2013-05-14 15:08:00,91.2,53.5,29.70,SW,232,2.4,6.9,28,0.00,CLR,,0.00,WeatherDisplay:10.37,2013-05-14 20:08:00,
2013-05-14 15:13:00,90.5,50.9,29.70,WSW,243,1.4,3.5,26,0.00,CLR,,0.00,WeatherDisplay:10.37,2013-05-14 20:13:00,
2013-05-14 15:18:00,90.8,50.1,29.70,SW,221,0.1,1.2,25,0.00,CLR,,0.00,WeatherDisplay:10.37,2013-05-14 20:18:00,
2013-05-14 15:23:00,91.2,50.5,29.70,SW,219,2.7,5.0,25,0.00,CLR,,0.00,WeatherDisplay:10.37,2013-05-14 20:23:00,
2013-05-14 15:28:00,91.7,51.9,29.71,SSW,208,4.2,8.1,26,0.00,CLR,,0.00,WeatherDisplay:10.37,2013-05-14 20:28:00,
2013-05-14 15:33:00,91.6,50.8,29.70,South,180,4.5,8.1,25,0.00,CLR,,0.00,WeatherDisplay:10.37,2013-05-14 20:33:00,
2013-05-14 15:38:00,91.9,50.0,29.71,SW,219,1.0,3.5,24,0.00,CLR,,0.00,WeatherDisplay:10.37,2013-05-14 20:38:00,
2013-05-14 15:43:00,91.8,52.0,29.70,SSE,159,3.1,6.9,26,0.00,CLR,,0.00,WeatherDisplay:10.37,2013-05-14 20:43:00,
2013-05-14 15:48:00,92.1,47.8,29.70,SSW,209,2.9,3.5,22,0.00,CLR,,0.00,WeatherDisplay:10.37,2013-05-14 20:48:00,
2013-05-14 15:53:00,92.3,49.1,29.70,SW,227,3.5,6.9,23,0.00,CLR,,0.00,WeatherDisplay:10.37,2013-05-14 20:53:00,
2013-05-14 15:58:00,91.7,53.0,29.70,SW,228,2.6,4.6,27,0.00,CLR,,0.00,WeatherDisplay:10.37,2013-05-14 20:58:00,
2013-05-14 16:03:00,91.7,50.9,29.70,SW,228,0.9,3.5,25,0.00,CLR,,0.00,WeatherDisplay:10.37,2013-05-14 21:03:00,
2013-05-14 16:08:00,92.2,52.4,29.70,SW,225,1.1,3.5,26,0.00,CLR,,0.00,WeatherDisplay:10.37,2013-05-14 21:08:00,
2013-05-14 16:13:00,91.8,54.1,29.70,SSW,202,3.0,5.8,28,0.00,CLR,,0.00,WeatherDisplay:10.37,2013-05-14 21:13:00,
2013-05-14 16:18:00,92.3,50.3,29.69,South,186,2.6,5.8,24,0.00,CLR,,0.00,WeatherDisplay:10.37,2013-05-14 21:18:00,
2013-05-14 16:23:00,92.1,49.0,29.69,SW,218,3.2,6.9,23,0.00,CLR,,0.00,WeatherDisplay:10.37,2013-05-14 21:23:00,
2013-05-14 16:28:00,91.8,54.1,29.68,SW,224,8.6,12.0,28,0.00,CLR,,0.00,WeatherDisplay:10.37,2013-05-14 21:28:00,
2013-05-14 16:33:00,91.9,52.1,29.69,South,178,5.2,9.2,26,0.00,CLR,,0.00,WeatherDisplay:10.37,2013-05-14 21:33:00,
2013-05-14 16:38:00,91.9,51.1,29.68,SSW,201,6.1,9.2,25,0.00,CLR,,0.00,WeatherDisplay:10.37,2013-05-14 21:38:00,
2013-05-14 16:43:00,91.6,49.7,29.68,SSW,198,4.0,6.9,24,0.00,CLR,,0.00,WeatherDisplay:10.37,2013-05-14 21:43:00,
2013-05-14 16:48:00,91.7,48.6,29.68,SSE,150,6.1,11.5,23,0.00,CLR,,0.00,WeatherDisplay:10.37,2013-05-14 21:48:00,
2013-05-14 16:53:00,91.7,47.5,29.68,South,190,5.3,7.0,22,0.00,CLR,,0.00,WeatherDisplay:10.37,2013-05-14 21:53:00,
2013-05-14 16:58:00,91.5,47.3,29.68,SSE,152,7.6,10.4,22,0.00,CLR,,0.00,WeatherDisplay:10.37,2013-05-14 21:58:00,
2013-05-14 17:03:00,91.4,48.4,29.67,South,182,6.3,10.4,23,0.00,CLR,,0.00,WeatherDisplay:10.37,2013-05-14 22:03:00,
2013-05-14 17:08:00,91.3,48.3,29.67,SSE,157,7.1,11.5,23,0.00,CLR,,0.00,WeatherDisplay:10.37,2013-05-14 22:08:00,
2013-05-14 17:13:00,91.2,49.4,29.67,South,182,8.5,13.8,24,0.00,CLR,,0.00,WeatherDisplay:10.37,2013-05-14 22:13:00,
2013-05-14 17:18:00,90.8,50.1,29.66,South,169,7.9,11.5,25,0.00,CLR,,0.00,WeatherDisplay:10.37,2013-05-14 22:18:00,
2013-05-14 17:23:00,90.6,50.0,29.66,SSE,158,5.7,10.4,25,0.00,CLR,,0.00,WeatherDisplay:10.37,2013-05-14 22:23:00,
2013-05-14 17:28:00,90.4,50.8,29.65,SSE,147,5.7,9.2,26,0.00,CLR,,0.00,WeatherDisplay:10.37,2013-05-14 22:28:00,
2013-05-14 17:33:00,90.2,51.7,29.65,SSE,156,8.9,13.0,27,0.00,CLR,,0.00,WeatherDisplay:10.37,2013-05-14 22:33:00,
2013-05-14 17:38:00,90.0,50.5,29.65,SSE,162,8.6,13.8,26,0.00,CLR,,0.00,WeatherDisplay:10.37,2013-05-14 22:38:00,
2013-05-14 17:43:00,89.8,51.4,29.65,SE,146,8.6,10.4,27,0.00,CLR,,0.00,WeatherDisplay:10.37,2013-05-14 22:43:00,
2013-05-14 17:48:00,89.7,52.3,29.65,SSE,160,6.2,10.4,28,0.00,CLR,,0.00,WeatherDisplay:10.37,2013-05-14 22:48:00,
2013-05-14 17:53:00,89.6,52.2,29.65,SE,138,7.2,11.5,28,0.00,CLR,,0.00,WeatherDisplay:10.37,2013-05-14 22:53:00,
2013-05-14 17:58:00,89.5,52.1,29.64,SSE,162,8.9,12.0,28,0.00,CLR,,0.00,WeatherDisplay:10.37,2013-05-14 22:58:00,
2013-05-14 18:03:00,89.3,53.8,29.64,SSE,150,5.8,16.1,30,0.00,CLR,,0.00,WeatherDisplay:10.37,2013-05-14 23:03:00,
2013-05-14 18:08:00,89.2,54.6,29.64,SSE,147,11.2,15.0,31,0.00,CLR,,0.00,WeatherDisplay:10.37,2013-05-14 23:08:00,
2013-05-14 18:13:00,89.0,55.3,29.63,South,169,7.1,12.7,32,0.00,CLR,,0.00,WeatherDisplay:10.37,2013-05-14 23:13:00,
2013-05-14 18:18:00,88.6,55.8,29.63,South,171,7.8,12.0,33,0.00,CLR,,0.00,WeatherDisplay:10.37,2013-05-14 23:18:00,
2013-05-14 18:23:00,88.4,55.6,29.63,SE,135,12.6,18.4,33,0.00,CLR,,0.00,WeatherDisplay:10.37,2013-05-14 23:23:00,
2013-05-14 18:28:00,88.1,57.8,29.63,SE,142,11.1,16.1,36,0.00,CLR,,0.00,WeatherDisplay:10.37,2013-05-14 23:28:00,
2013-05-14 18:33:00,87.7,58.9,29.63,SSE,161,11.7,16.1,38,0.00,CLR,,0.00,WeatherDisplay:10.37,2013-05-14 23:33:00,
2013-05-14 18:38:00,87.2,59.9,29.63,SSE,150,8.4,12.7,40,0.00,CLR,,0.00,WeatherDisplay:10.37,2013-05-14 23:38:00,
2013-05-14 18:43:00,86.8,60.3,29.62,SSE,163,9.8,14.0,41,0.00,CLR,,0.00,WeatherDisplay:10.37,2013-05-14 23:43:00,
2013-05-14 18:48:00,86.5,60.7,29.62,South,175,7.2,16.1,42,0.00,CLR,,0.00,WeatherDisplay:10.37,2013-05-14 23:48:00,
2013-05-14 18:53:00,86.1,61.0,29.62,South,174,11.1,17.3,43,0.00,CLR,,0.00,WeatherDisplay:10.37,2013-05-14 23:53:00,
2013-05-14 18:58:00,85.7,60.6,29.62,SSE,150,14.4,19.6,43,0.00,CLR,,0.00,WeatherDisplay:10.37,2013-05-14 23:58:00,
2013-05-14 19:03:00,85.4,61.0,29.62,SE,145,10.2,19.6,44,0.00,CLR,,0.00,WeatherDisplay:10.37,2013-05-15 00:03:00,
2013-05-14 19:08:00,84.8,61.1,29.62,SSE,150,10.0,15.0,45,0.00,CLR,,0.00,WeatherDisplay:10.37,2013-05-15 00:08:00,
2013-05-14 19:13:00,84.5,61.4,29.62,SE,130,11.0,15.0,46,0.00,CLR,,0.00,WeatherDisplay:10.37,2013-05-15 00:13:00,
2013-05-14 19:18:00,84.2,61.8,29.62,SSE,156,9.6,15.0,47,0.00,CLR,,0.00,WeatherDisplay:10.37,2013-05-15 00:18:00,
2013-05-14 19:23:00,83.8,61.4,29.62,SE,146,10.9,16.0,47,0.00,CLR,,0.00,WeatherDisplay:10.37,2013-05-15 00:23:00,
2013-05-14 19:28:00,83.6,61.2,29.62,SE,142,12.0,13.8,47,0.00,CLR,,0.00,WeatherDisplay:10.37,2013-05-15 00:28:00,
2013-05-14 19:33:00,83.4,61.1,29.62,South,170,9.3,13.8,47,0.00,CLR,,0.00,WeatherDisplay:10.37,2013-05-15 00:33:00,
2013-05-14 19:38:00,83.1,60.8,29.62,SSE,151,10.1,11.5,47,0.00,CLR,,0.00,WeatherDisplay:10.37,2013-05-15 00:38:00,
2013-05-14 19:43:00,82.7,61.0,29.62,SE,142,9.0,13.8,48,0.00,CLR,,0.00,WeatherDisplay:10.37,2013-05-15 00:43:00,
2013-05-14 19:48:00,82.5,60.8,29.62,SSE,149,9.1,10.4,48,0.00,CLR,,0.00,WeatherDisplay:10.37,2013-05-15 00:48:00,
2013-05-14 19:53:00,82.1,60.5,29.62,SSE,153,8.5,11.5,48,0.00,CLR,,0.00,WeatherDisplay:10.37,2013-05-15 00:53:00,
2013-05-14 19:58:00,81.8,60.2,29.62,South,182,9.2,13.8,48,0.00,CLR,,0.00,WeatherDisplay:10.37,2013-05-15 00:58:00,
2013-05-14 20:03:00,81.4,60.4,29.62,SE,141,7.3,11.5,49,0.00,CLR,,0.00,WeatherDisplay:10.37,2013-05-15 01:03:00,
2013-05-14 20:08:00,81.0,60.6,29.62,SE,145,8.5,13.0,50,0.00,CLR,,0.00,WeatherDisplay:10.37,2013-05-15 01:08:00,
2013-05-14 20:13:00,80.6,60.8,29.61,SSE,160,9.7,11.5,51,0.00,CLR,,0.00,WeatherDisplay:10.37,2013-05-15 01:13:00,
2013-05-14 20:18:00,80.1,60.9,29.61,SSE,153,9.8,15.0,52,0.00,CLR,,0.00,WeatherDisplay:10.37,2013-05-15 01:18:00,
2013-05-14 20:23:00,79.7,61.1,29.62,SSE,166,8.5,15.0,53,0.00,CLR,,0.00,WeatherDisplay:10.37,2013-05-15 01:23:00,
2013-05-14 20:28:00,79.5,61.4,29.62,SSE,154,8.6,11.5,54,0.00,CLR,,0.00,WeatherDisplay:10.37,2013-05-15 01:28:00,
2013-05-14 20:33:00,79.2,61.6,29.62,SSW,204,8.1,11.5,55,0.00,CLR,,0.00,WeatherDisplay:10.37,2013-05-15 01:33:00,
2013-05-14 20:38:00,79.0,61.5,29.62,SSE,159,7.3,9.2,55,0.00,CLR,,0.00,WeatherDisplay:10.37,2013-05-15 01:38:00,
2013-05-14 20:43:00,78.7,61.7,29.62,SE,142,7.8,11.5,56,0.00,CLR,,0.00,WeatherDisplay:10.37,2013-05-15 01:43:00,
2013-05-14 20:48:00,78.2,61.7,29.62,South,173,4.9,8.1,57,0.00,CLR,,0.00,WeatherDisplay:10.37,2013-05-15 01:48:00,
2013-05-14 20:53:00,77.7,61.7,29.63,South,180,5.3,6.9,58,0.00,CLR,,0.00,WeatherDisplay:10.37,2013-05-15 01:53:00,
2013-05-14 20:58:00,77.5,62.0,29.63,South,173,4.6,6.0,59,0.00,CLR,,0.00,WeatherDisplay:10.37,2013-05-15 01:58:00,
2013-05-14 21:03:00,77.1,61.7,29.63,South,174,3.7,5.8,59,0.00,CLR,,0.00,WeatherDisplay:10.37,2013-05-15 02:03:00,
2013-05-14 21:08:00,76.8,61.9,29.63,South,170,3.4,6.0,60,0.00,CLR,,0.00,WeatherDisplay:10.37,2013-05-15 02:08:00,
2013-05-14 21:18:00,76.4,62.0,29.63,South,186,2.8,4.6,61,0.00,CLR,,0.00,WeatherDisplay:10.37,2013-05-15 02:18:00,
2013-05-14 21:23:00,76.3,61.9,29.64,South,180,5.0,5.0,61,0.00,CLR,,0.00,WeatherDisplay:10.37,2013-05-15 02:23:00,
2013-05-14 21:28:00,76.3,61.4,29.64,South,182,4.6,9.2,60,0.00,CLR,,0.00,WeatherDisplay:10.37,2013-05-15 02:28:00,
2013-05-14 21:33:00,76.4,61.5,29.63,SW,218,4.7,6.9,60,0.00,CLR,,0.00,WeatherDisplay:10.37,2013-05-15 02:33:00,
2013-05-14 21:38:00,76.3,61.4,29.64,SSW,198,4.0,4.6,60,0.00,CLR,,0.00,WeatherDisplay:10.37,2013-05-15 02:38:00,
2013-05-14 21:43:00,76.3,61.4,29.64,SSW,198,4.0,4.6,60,0.00,CLR,,0.00,WeatherDisplay:10.37,2013-05-15 02:43:00,
2013-05-14 21:48:00,76.3,61.4,29.64,SSW,198,4.0,4.6,60,0.00,CLR,,0.00,WeatherDisplay:10.37,2013-05-15 02:48:00,
2013-05-14 21:53:00,76.3,61.4,29.64,SSW,198,4.0,4.6,60,0.00,CLR,,0.00,WeatherDisplay:10.37,2013-05-15 02:53:00,
2013-05-14 21:58:00,76.3,61.4,29.64,SSW,198,4.0,4.6,60,0.00,CLR,,0.00,WeatherDisplay:10.37,2013-05-15 02:58:00,
2013-05-14 22:03:00,76.3,61.4,29.64,SSW,198,4.0,4.6,60,0.00,CLR,,0.00,WeatherDisplay:10.37,2013-05-15 03:03:00,
2013-05-14 22:08:00,76.3,61.4,29.64,SSW,198,4.0,4.6,60,0.00,CLR,,0.00,WeatherDisplay:10.37,2013-05-15 03:08:00,
2013-05-14 22:13:00,76.3,61.4,29.64,SSW,198,4.0,4.6,60,0.00,CLR,,0.00,WeatherDisplay:10.37,2013-05-15 03:13:00,
2013-05-14 22:18:00,76.3,61.4,29.64,SSW,198,4.0,4.6,60,0.00,CLR,,0.00,WeatherDisplay:10.37,2013-05-15 03:18:00,
2013-05-14 22:23:00,76.3,61.4,29.64,SSW,198,4.0,4.6,60,0.00,CLR,,0.00,WeatherDisplay:10.37,2013-05-15 03:23:00,
2013-05-14 22:28:00,76.3,61.4,29.64,SSW,198,4.0,4.6,60,0.00,CLR,,0.00,WeatherDisplay:10.37,2013-05-15 03:28:00,
2013-05-14 22:33:00,76.3,61.4,29.64,SSW,198,4.0,4.6,60,0.00,CLR,,0.00,WeatherDisplay:10.37,2013-05-15 03:33:00,
2013-05-14 22:38:00,76.3,61.4,29.64,SSW,198,4.0,4.6,60,0.00,CLR,,0.00,WeatherDisplay:10.37,2013-05-15 03:38:00,
2013-05-14 22:43:00,76.3,61.4,29.64,SSW,198,4.0,4.6,60,0.00,CLR,,0.00,WeatherDisplay:10.37,2013-05-15 03:43:00,
2013-05-14 22:48:00,76.3,61.4,29.64,SSW,198,4.0,4.6,60,0.00,CLR,,0.00,WeatherDisplay:10.37,2013-05-15 03:48:00,
2013-05-14 22:53:00,76.3,61.4,29.64,SSW,198,4.0,4.6,60,0.00,CLR,,0.00,WeatherDisplay:10.37,2013-05-15 03:53:00,
2013-05-14 22:58:00,76.3,61.4,29.64,SSW,198,4.0,4.6,60,0.00,CLR,,0.00,WeatherDisplay:10.37,2013-05-15 03:58:00,
2013-05-14 23:01:00,76.3,61.4,29.64,SSW,198,4.0,4.6,60,0.00,CLR,,0.00,WeatherDisplay:10.37,2013-05-15 04:01:00,
2013-05-14 23:02:00,76.3,61.4,29.64,SSW,198,4.0,4.6,60,0.00,CLR,,0.00,WeatherDisplay:10.37,2013-05-15 04:02:00,
2013-05-14 23:06:00,76.3,61.4,29.64,SSW,198,4.0,4.6,60,0.00,CLR,,0.00,WeatherDisplay:10.37,2013-05-15 04:06:00,
2013-05-14 23:11:00,76.3,61.4,29.64,SSW,198,4.0,4.6,60,0.00,CLR,,0.00,WeatherDisplay:10.37,2013-05-15 04:11:00,
2013-05-14 23:16:00,76.3,61.4,29.64,SSW,198,4.0,4.6,60,0.00,CLR,,0.00,WeatherDisplay:10.37,2013-05-15 04:16:00,
2013-05-14 23:21:00,76.3,61.4,29.64,SSW,198,4.0,4.6,60,0.00,CLR,,0.00,WeatherDisplay:10.37,2013-05-15 04:21:00,
2013-05-14 23:26:00,76.3,61.4,29.64,SSW,198,4.0,4.6,60,0.00,CLR,,0.00,WeatherDisplay:10.37,2013-05-15 04:26:00,
2013-05-14 23:31:00,76.3,61.4,29.64,SSW,198,4.0,4.6,60,0.00,CLR,,0.00,WeatherDisplay:10.37,2013-05-15 04:31:00,
2013-05-14 23:36:00,76.3,61.4,29.64,SSW,198,4.0,4.6,60,0.00,CLR,,0.00,WeatherDisplay:10.37,2013-05-15 04:36:00,
2013-05-14 23:41:00,76.3,61.4,29.64,SSW,198,4.0,4.6,60,0.00,CLR,,0.00,WeatherDisplay:10.37,2013-05-15 04:41:00,
2013-05-14 23:46:00,76.3,61.4,29.64,SSW,198,4.0,4.6,60,0.00,CLR,,0.00,WeatherDisplay:10.37,2013-05-15 04:46:00,
2013-05-14 23:51:00,76.3,61.4,29.64,SSW,198,4.0,4.6,60,0.00,CLR,,0.00,WeatherDisplay:10.37,2013-05-15 04:51:00,
2013-05-14 23:56:00,76.3,61.4,29.64,SSW,198,4.0,4.6,60,0.00,CLR,,0.00,WeatherDisplay:10.37,2013-05-15 04:56:00,